This demonstration page uses our WeatherBlox Daily Observations layout. Learn more.

Left ArrowRight Arrow

39.08367, -84.50855

Hourly Observations for December 27, 2020

Temp ( °F °C ) Dew Point ( °F °C ) Humidity (%) Winds ( mph kmh ) Pressure ( in mb ) Visibility ( mi km ) Precip ( " mm )
12:53 am 00:53 Clear 21 -6.1 19 -7.2 92 92 N N/A 30.08 1019 9 14 N/A
1:53 am 01:53 Clear 20 -6.7 18 -7.8 92 92 N N/A 30.08 1019 8 13 N/A
2:53 am 02:53 Clear 20 -6.7 18 -7.8 92 92 N N/A 30.09 1019 7 11 N/A
3:53 am 03:53 Clear 20 -6.7 18 -7.8 92 92 N N/A 30.08 1019 7 11 N/A
4:53 am 04:53 Clear 20 -6.7 18 -7.8 92 92 N N/A 30.09 1019 8 13 N/A
5:53 am 05:53 Clear 20 -6.7 17 -8.3 89 89 N N/A 30.09 1019 9 14 N/A
6:53 am 06:53 Clear 20 -6.7 18 -7.8 92 92 N N/A 30.09 1019 8 13 N/A
7:53 am 07:53 Clear 20 -6.7 18 -7.8 92 92 N N/A 30.09 1019 7 11 N/A
8:53 am 08:53 Sunny 28 -2.2 24 -4.4 85 85 W 5 7 30.08 1019 10 16 N/A
9:53 am 09:53 Sunny 34 1.1 28 -2.2 79 79 SW 6 9 30.08 1019 10 16 N/A
10:53 am 10:53 Sunny 40 4.4 30 -1.1 68 68 SSW 8 13 30.06 1018 10 16 N/A
11:53 am 11:53 Sunny 45 7.2 30 -1.1 56 56 SSW 14 22 30.03 1017 10 16 N/A
12:53 pm 12:53 Sunny 49 9.4 31 -0.6 50 50 S 8 13 29.99 1016 10 16 N/A
1:53 pm 13:53 Sunny 52 11.1 32 undefined 47 47 S 15 24 29.95 1014 10 16 N/A
2:53 pm 14:53 Sunny 53 11.7 32 undefined 45 45 S 10 17 29.93 1014 10 16 N/A
3:53 pm 15:53 Sunny 51 10.6 32 undefined 48 48 SSE 9 15 29.93 1013 10 16 N/A
4:53 pm 16:53 Sunny 50 10 33 0.6 52 52 S 10 17 29.92 1013 10 16 N/A
5:53 pm 17:53 Clear 49 9.4 33 0.6 55 55 S 10 17 29.91 1013 10 16 N/A
6:53 pm 18:53 Mostly Clear 51 10.6 32 undefined 48 48 S 13 20 29.89 1012 10 16 N/A
7:53 pm 19:53 Cloudy 52 11.1 30 -1.1 43 43 S 14 22 29.88 1012 10 16 N/A
8:53 pm 20:53 Partly Cloudy 51 10.6 30 -1.1 44 44 S 14 22 29.89 1012 10 16 N/A
9:53 pm 21:53 Cloudy 50 10 30 -1.1 46 46 S 13 20 29.90 1013 10 16 N/A
10:53 pm 22:53 Cloudy with Light Rain 51 10.6 30 -1.1 44 44 SSW 17 28 29.92 1013 10 16 0.00 0.00
11:53 pm 23:53 Mostly Cloudy 50 10 30 -1.1 46 46 SSW 15 24 29.91 1013 10 16 0.00 0.00

Powered by AerisWeather